Weather History for Crockett, TX

Change the Weather History Date:

Sunday, February 17, 2013

  Actual Average (KLFK) Record (KLFK)
Temperature  
Mean Temperature 51 °F 53 °F  
Max Temperature 69 °F 64 °F 85 °F (1911)
Min Temperature 33 °F 42 °F 17 °F (1910)
Degree Days  
Heating Degree Days 14 12  
Month to date heating degree days 233  
Since 1 July heating degree days 1513  
Cooling Degree Days 0 0  
Month to date cooling degree days 0  
Year to date cooling degree days 8  
Growing Degree Days 1 (Base 50)    
Moisture  
Dew Point 36 °F    
Average Humidity 57    
Maximum Humidity 93    
Minimum Humidity 25    
Precipitation  
Precipitation 0.00 in 0.15 in 1.63 in (1932)
Month to date precipitation 2.38  
Year to date precipitation 6.56  
Snow  
Snow 0.00 in - - ()
Month to date snowfall  
Since 1 July snowfall  
Snow Depth -    
Sea Level Pressure  
Sea Level Pressure 30.17 in    
Wind  
Wind Speed 4 mph (South)    
Max Wind Speed 20 mph    
Max Gust Speed 26 mph    
Visibility 10 miles    
Events      
T = Trace of Precipitation, MM = Missing Value Source: NWS Daily Summary

Daily Weather History Graph

Daily Weather History Graph

Search for Another Location

Airport:

Trip Planner

Search our weather history database for the weather conditions in past years. The results will help you decide how hot, cold, wet, or windy it might be!

Date:

Astronomy

Feb. 17, 2013 Rise Set
Actual Time 7:00 AM CST 6:10 PM CST
Civil Twilight 6:36 AM CST 6:35 PM CST
Nautical Twilight 6:07 AM CST 7:03 PM CST
Astronomical Twilight 5:39 AM CST 7:32 PM CST
Moon 11:24 AM CST (2/17) 12:38 AM CST (2/17)
Length of Visible Light 11h 59m
Length of Day
11h 09m
Waxing Crescent, 49% of the Moon is Illuminated
Feb 17
Waxing Crescent
Feb 17
First Quarter
Feb 25
Full
Mar 4
Last Quarter
Mar 11
New

Hourly Weather History & Observations

Time (CST) Temp. Windchill Dew Point Humidity Pressure Visibility Wind Dir Wind Speed Gust Speed Precip Events Conditions
12:15 AM 33.8 °F - 32.0 °F 93% 30.27 in 10.0 mi Calm Calm - N/A   Clear
12:35 AM 33.8 °F - 32.0 °F 93% 30.26 in 10.0 mi Calm Calm - N/A   Clear
12:55 AM 37.4 °F - 32.0 °F 81% 30.26 in 10.0 mi Calm Calm - N/A   Clear
1:15 AM 39.2 °F - 32.0 °F 75% 30.26 in 10.0 mi Calm Calm - N/A   Clear
1:35 AM 35.6 °F - 32.0 °F 87% 30.26 in 10.0 mi Calm Calm - N/A   Clear
1:55 AM 35.6 °F - 32.0 °F 87% 30.26 in 10.0 mi Calm Calm - N/A   Clear
2:15 AM 37.4 °F - 32.0 °F 81% 30.25 in 10.0 mi Calm Calm - N/A   Clear
2:35 AM 35.6 °F - 32.0 °F 87% 30.24 in 10.0 mi Calm Calm - N/A   Clear
2:55 AM 37.4 °F - 32.0 °F 81% 30.24 in 10.0 mi Calm Calm - N/A   Clear
3:15 AM 39.2 °F 37.0 °F 32.0 °F 75% 30.23 in 10.0 mi South 3.5 mph - N/A   Clear
3:35 AM 39.2 °F - 32.0 °F 75% 30.23 in 10.0 mi Calm Calm - N/A   Clear
3:55 AM 39.2 °F - 32.0 °F 75% 30.23 in 10.0 mi Calm Calm - N/A   Clear
4:15 AM 39.2 °F - 30.2 °F 70% 30.22 in 10.0 mi Calm Calm - N/A   Clear
4:35 AM 39.2 °F - 32.0 °F 75% 30.22 in 10.0 mi Calm Calm - N/A   Clear
4:55 AM 37.4 °F - 32.0 °F 81% 30.22 in 10.0 mi Calm Calm - N/A   Clear
5:15 AM 37.4 °F - 30.2 °F 75% 30.23 in 10.0 mi Calm Calm - N/A   Clear
5:35 AM 37.4 °F - 32.0 °F 81% 30.23 in 10.0 mi Calm Calm - N/A   Clear
5:55 AM 39.2 °F - 32.0 °F 75% 30.23 in 10.0 mi Calm Calm - N/A   Clear
6:15 AM 39.2 °F - 32.0 °F 75% 30.23 in 10.0 mi Calm Calm - N/A   Clear
6:35 AM 37.4 °F - 32.0 °F 81% 30.23 in 10.0 mi Calm Calm - N/A   Clear
6:55 AM 37.4 °F - 32.0 °F 81% 30.23 in 10.0 mi Calm Calm - N/A   Clear
7:15 AM 39.2 °F - 33.8 °F 81% 30.23 in 10.0 mi Calm Calm - N/A   Clear
7:35 AM 41.0 °F - 35.6 °F 81% 30.23 in 10.0 mi Calm Calm - N/A   Clear
7:55 AM 42.8 °F - 35.6 °F 76% 30.24 in 10.0 mi Calm Calm - N/A   Clear
8:15 AM 44.6 °F - 37.4 °F 76% 30.25 in 10.0 mi Calm Calm - N/A   Clear
8:35 AM 46.4 °F - 39.2 °F 76% 30.25 in 10.0 mi Calm Calm - N/A   Clear
8:55 AM 46.4 °F - 39.2 °F 76% 30.25 in 10.0 mi Calm Calm - N/A   Clear
9:15 AM 48.2 °F - 39.2 °F 71% 30.25 in 10.0 mi Calm Calm - N/A   Clear
9:35 AM 51.8 °F - 41.0 °F 67% 30.25 in 10.0 mi SSW 8.1 mph - N/A   Clear
9:55 AM 55.4 °F - 41.0 °F 58% 30.25 in 10.0 mi SSW 3.5 mph - N/A   Clear
10:15 AM 57.2 °F - 41.0 °F 55% 30.24 in 10.0 mi South 3.5 mph - N/A   Clear
10:35 AM 60.8 °F - 41.0 °F 48% 30.24 in 10.0 mi Calm Calm - N/A   Clear
10:55 AM 60.8 °F - 39.2 °F 45% 30.24 in 10.0 mi SSW 12.7 mph 19.6 mph N/A   Clear
11:15 AM 62.6 °F - 37.4 °F 39% 30.23 in 10.0 mi SSW 12.7 mph 18.4 mph N/A   Clear
11:35 AM 62.6 °F - 37.4 °F 39% 30.22 in 10.0 mi SW 15.0 mph 19.6 mph N/A   Clear
11:55 AM 64.4 °F - 35.6 °F 34% 30.20 in 10.0 mi SSW 16.1 mph 20.7 mph N/A   Clear
12:15 PM 66.2 °F - 35.6 °F 32% 30.19 in 10.0 mi SSW 16.1 mph 19.6 mph N/A   Clear
12:35 PM 66.2 °F - 35.6 °F 32% 30.18 in 10.0 mi SSW 10.4 mph 19.6 mph N/A   Clear
12:55 PM 66.2 °F - 35.6 °F 32% 30.17 in 10.0 mi SSW 12.7 mph 18.4 mph N/A   Clear
1:15 PM 68.0 °F - 35.6 °F 30% 30.15 in 10.0 mi South 3.5 mph 21.9 mph N/A   Clear
1:35 PM 69.8 °F - 33.8 °F 27% 30.14 in 10.0 mi South 13.8 mph 23.0 mph N/A   Clear
1:55 PM 69.8 °F - 32.0 °F 25% 30.13 in 10.0 mi South 9.2 mph 24.2 mph N/A   Clear
2:15 PM 69.8 °F - 32.0 °F 25% 30.12 in 10.0 mi South 12.7 mph 21.9 mph N/A   Clear
2:35 PM 69.8 °F - 33.8 °F 27% 30.10 in 10.0 mi SSW 16.1 mph 19.6 mph N/A   Clear
2:55 PM 69.8 °F - 33.8 °F 27% 30.10 in 10.0 mi SSW 13.8 mph 20.7 mph N/A   Clear
3:15 PM 69.8 °F - 33.8 °F 27% 30.09 in 10.0 mi SSW 11.5 mph 24.2 mph N/A   Clear
3:35 PM 69.8 °F - 32.0 °F 25% 30.08 in 10.0 mi South 15.0 mph 26.5 mph N/A   Clear
3:55 PM 69.8 °F - 33.8 °F 27% 30.08 in 10.0 mi South 19.6 mph 26.5 mph N/A   Clear
4:15 PM 69.8 °F - 33.8 °F 27% 30.08 in 10.0 mi South 17.3 mph - N/A   Clear
4:35 PM 69.8 °F - 33.8 °F 27% 30.07 in 10.0 mi South 13.8 mph 21.9 mph N/A   Clear
4:55 PM 69.8 °F - 33.8 °F 27% 30.06 in 10.0 mi South 4.6 mph 17.3 mph N/A   Clear
5:15 PM 68.0 °F - 33.8 °F 28% 30.06 in 10.0 mi South 11.5 mph - N/A   Clear
5:35 PM 66.2 °F - 33.8 °F 30% 30.05 in 10.0 mi South 13.8 mph 19.6 mph N/A   Clear
5:55 PM 66.2 °F - 33.8 °F 30% 30.05 in 10.0 mi South 8.1 mph - N/A   Clear
6:15 PM 64.4 °F - 33.8 °F 32% 30.06 in 10.0 mi South 8.1 mph - N/A   Clear
6:35 PM 62.6 °F - 35.6 °F 37% 30.06 in 10.0 mi SSE 3.5 mph - N/A   Clear
6:55 PM 62.6 °F - 39.2 °F 42% 30.06 in 10.0 mi SSE 9.2 mph - N/A   Clear
7:15 PM 60.8 °F - 41.0 °F 48% 30.07 in 10.0 mi SSE 9.2 mph 20.7 mph N/A   Clear
7:35 PM 60.8 °F - 41.0 °F 48% 30.08 in 10.0 mi SSE 12.7 mph 21.9 mph N/A   Partly Cloudy
7:55 PM 60.8 °F - 42.8 °F 52% 30.08 in 10.0 mi South 10.4 mph 19.6 mph N/A   Partly Cloudy
8:15 PM 59.0 °F - 42.8 °F 55% 30.09 in 10.0 mi South 5.8 mph 18.4 mph N/A   Clear
8:35 PM 59.0 °F - 42.8 °F 55% 30.09 in 10.0 mi SSE 11.5 mph 17.3 mph N/A   Clear
8:55 PM 57.2 °F - 42.8 °F 59% 30.09 in 10.0 mi South 8.1 mph - N/A   Clear
9:15 PM 57.2 °F - 42.8 °F 59% 30.09 in 10.0 mi South 9.2 mph 17.3 mph N/A   Clear
9:35 PM 57.2 °F - 42.8 °F 59% 30.10 in 10.0 mi SSE 10.4 mph 18.4 mph N/A   Partly Cloudy
9:55 PM 57.2 °F - 42.8 °F 59% 30.10 in 10.0 mi SSE 9.2 mph - N/A   Partly Cloudy
10:15 PM 55.4 °F - 44.6 °F 67% 30.10 in 10.0 mi Calm Calm - N/A   Clear
10:35 PM 55.4 °F - 44.6 °F 67% 30.09 in 10.0 mi South 5.8 mph - N/A   Clear
10:55 PM 55.4 °F - 44.6 °F 67% 30.09 in 10.0 mi SSE 9.2 mph - N/A   Clear
11:15 PM 55.4 °F - 44.6 °F 67% 30.08 in 10.0 mi SSE 8.1 mph - N/A   Clear
11:35 PM 55.4 °F - 44.6 °F 67% 30.07 in 10.0 mi SSE 5.8 mph - N/A   Clear
11:55 PM 53.6 °F - 46.4 °F 77% 30.05 in 10.0 mi SSE 6.9 mph - N/A   Clear